[[{"header":{"parameterUnit":"m.s-1","parameterCategory":1,"la1":30.2991,"la2":30.254,"lo1":-89.0895,"lo2":-89.0444,"dy":0.0017,"dx":0.0017,"nx":28,"ny":28,"refTime":"2023-08-21T21:00:00:Z","depth":0,"parameterNumber":2,"parameterNumberName":"U-component_of_WINDS"},"data":[0,0,0,0,0,0,0,0,0,0,0,0,0,0,0,0,0,0,0,0,0,0,0,0,0,0,0,0,0,0,0,0,0,0,0,0,0,0,0,0,0,0,0,0,0,0,0,0,0,0,0,0,0,0,0,0,0,0,-5.3783,-5.3783,0,-5.3786,-5.3786,-5.3786,-5.3683,-5.3681,-5.3678,-5.3675,-5.3678,-5.3681,-5.3683,0,0,0,0,0,0,0,0,0,0,0,0,0,-5.3687,-5.3689,-5.3783,-5.3783,-5.3783,-5.3786,-5.3786,-5.3786,-5.3684,-5.3681,-5.3677,-5.3674,-5.3677,-5.368,-5.3683,0,0,0,0,0,0,0,0,0,0,0,0,0,-5.3713,-5.369,-5.3783,-5.3732,-5.3728,-5.3786,-5.3786,-5.3786,-5.3685,-5.368,-5.3676,-5.3673,-5.3676,-5.368,-5.3684,-5.3791,0,0,-5.3696,-5.3698,0,0,0,0,0,0,0,0,-5.3712,-5.3717,-5.3739,-5.3736,-5.3731,-5.373,-5.3753,-5.3788,-5.3686,-5.3701,-5.3675,-5.367,-5.3699,-5.37,-5.371,-5.3791,-5.3791,-5.3696,-5.3699,-5.37,-5.3701,0,0,0,0,0,0,0,-5.371,-5.3716,-5.3784,-5.374,-5.3735,-5.3709,-5.3708,-5.3759,-5.3723,-5.3699,-5.3692,-5.3694,-5.3695,-5.3707,-5.3709,-5.3791,-5.3696,-5.37,-5.3702,-5.3704,-5.396,-5.3964,0,0,0,0,0,0,-5.3715,-5.3715,-5.3784,-5.3784,-5.3711,-5.3714,-5.3713,-5.3735,-5.3722,-5.3716,-5.3697,-5.3689,-5.3702,-5.3705,-5.3709,-5.3832,-5.37,-5.3704,-5.3706,-5.3955,-5.3961,-5.3965,0,0,0,0,0,0,-5.3714,-5.3723,-5.3784,-5.3748,-5.3754,-5.372,-5.3745,-5.3737,-5.3748,-5.372,-5.3713,-5.3715,-5.3699,-5.3704,-5.3771,-5.3831,-5.3706,-5.3709,-5.395,-5.3957,-5.3963,-5.4081,0,0,0,0,0,0,-5.3711,-5.3723,-5.3763,-5.3749,-5.3756,-5.3846,-5.3749,-5.374,-5.3755,-5.3744,-5.3735,-5.373,-5.3696,-5.3766,-5.3775,-5.3834,-5.3712,-5.3944,-5.3953,-5.3961,-5.4071,-5.4091,-5.4107,0,0,0,0,0,-5.3708,-5.3795,-5.3765,-5.3774,-5.3805,-5.385,-5.3853,-5.3812,-5.376,-5.38,-5.3783,-5.373,-5.3824,-5.3774,-5.3783,-5.3845,-5.394,-5.3951,-5.396,-5.4063,-5.4087,-5.4107,0,0,0,0,0,0,-5.3815,-5.3793,-5.3759,-5.3844,-5.385,-5.3832,-5.3881,-5.3839,-5.3859,-5.3848,-5.3796,-5.3795,-5.3871,-5.3865,-5.3809,-5.3947,-5.3873,-5.3885,-5.3948,-5.397,-5.3988,-5.3986,-5.3716,0,0,0,0,0,-5.3849,-5.3887,-5.3865,-5.3943,-5.3948,-5.3915,-5.3932,-5.3901,-5.3904,-5.3905,-5.3893,-5.3898,-5.3928,-5.3949,-5.3976,-5.4071,-5.4067,-5.4118,-5.4136,-5.4151,-5.4162,-5.4211,-5.4233,-5.3998,-5.3998,-5.3998,0,0,-5.3919,-5.3911,-5.3938,-5.3964,-5.3965,-5.4005,-5.3917,-5.3963,-5.3992,-5.3912,-5.3975,-5.3967,-5.3969,-5.4051,-5.4086,-5.4048,-5.4226,-5.4164,-5.4176,-5.4178,-5.4224,-5.4246,-5.4266,-5.4005,-5.4004,-5.4003,0,0,-5.4065,-5.4064,-5.4128,-5.4131,-5.4134,-5.4111,-5.4127,-5.4117,-5.4108,-5.4171,-5.4112,-5.4146,-5.42,-5.4204,-5.4213,-5.4365,-5.4317,-5.4375,-5.4467,-5.4516,-5.4535,-5.4551,-5.4604,-5.4623,-5.4386,-5.4386,-5.4387,0,-5.4151,-5.4209,-5.4167,-5.4217,-5.423,-5.4161,-5.4226,-5.4231,-5.4242,-5.4252,-5.421,-5.4276,-5.4273,-5.4355,-5.4392,-5.4402,-5.4418,-5.4374,-5.4536,-5.4551,-5.4566,-5.4615,-5.4636,-5.4393,-5.4393,-5.4392,-5.4391,0,-5.4314,-5.4356,-5.4408,-5.4421,-5.444,-5.4498,-5.4463,-5.4488,-5.4456,-5.4438,-5.4503,-5.4498,-5.4522,-5.454,-5.4508,-5.4617,-5.4593,-5.4545,-5.4468,-5.4596,-5.4641,-5.466,-5.4403,-5.4401,-5.4399,-5.4397,0,0,-5.4525,-5.4516,-5.4535,-5.454,-5.4539,-5.457,-5.4625,-5.465,-5.4671,-5.4683,-5.4726,-5.4775,-5.473,-5.4741,-5.471,-5.4753,-5.4872,-5.4698,-5.4698,-5.4729,-5.4991,-5.5026,-5.5049,-5.4842,-5.4845,-5.4848,-5.499,0,-5.4666,-5.4758,-5.4723,-5.4818,-5.4856,-5.4792,-5.484,-5.4845,-5.4831,-5.4861,-5.4845,-5.488,-5.4818,-5.4824,-5.4865,-5.4849,-5.4923,-5.4839,-5.4881,-5.4883,-5.488,-5.5073,-5.5109,-5.5243,-5.5008,-5.5011,-5.5013,0,-5.4842,-5.4861,-5.496,-5.4953,-5.4968,-5.5011,-5.5031,-5.5061,-5.5065,-5.5052,-5.5066,-5.5025,-5.5079,-5.5005,-5.5077,-5.5021,-5.5037,-5.5032,-5.5036,-5.5036,-5.4954,-5.5076,-5.5285,-5.5305,-5.5041,-5.5039,-5.5037,0,-5.4984,-5.5034,-5.51,-5.5107,-5.5101,-5.5133,-5.5132,-5.5132,-5.5149,-5.5167,-5.5178,-5.5202,-5.5215,-5.5234,-5.5202,-5.5151,-5.5279,-5.5202,-5.5268,-5.5269,-5.5295,-5.5293,-5.5508,-5.531,-5.531,-5.5309,-5.5309,0,-5.5143,-5.5206,-5.5163,-5.5204,-5.5272,-5.5231,-5.5301,-5.5293,-5.5294,-5.5332,-5.5279,-5.5316,-5.5272,-5.5304,-5.528,-5.5343,-5.535,-5.534,-5.5332,-5.5343,-5.5344,-5.535,-5.5339,-5.5315,-5.5313,-5.5312,-5.5312,0,-5.5312,-5.5286,-5.5353,-5.5343,-5.5342,-5.5393,-5.5384,-5.5421,-5.5404,-5.5452,-5.5461,-5.5435,-5.5471,-5.5441,-5.5476,-5.5459,-5.5543,-5.5523,-5.5541,-5.5535,-5.5601,-5.5595,-5.5825,-5.5853,-5.564,-5.5642,-5.5644,0,-5.5414,-5.5461,-5.5456,-5.5478,-5.548,-5.5516,-5.5534,-5.5496,-5.5517,-5.5526,-5.5562,-5.5594,-5.5616,-5.5676,-5.566,-5.5686,-5.5665,-5.5744,-5.5668,-5.5678,-5.5664,-5.5661,-5.5665,-5.5759,-5.5761,-5.5763,-5.5765,0,-5.5598,-5.5583,-5.5611,-5.5635,-5.5658,-5.5675,-5.5687,-5.5708,-5.567,-5.5696,-5.5732,-5.575,-5.5786,-5.5817,-5.5839,-5.5837,-5.5795,-5.579,-5.5806,-5.5816,-5.5824,-5.5819,-5.558,-5.5783,-5.5782,-5.578,-5.5779,-5.5778,-5.5735,-5.5773,-5.5776,-5.5809,-5.5815,-5.5829,-5.5863,-5.5852,-5.5881,-5.5907,-5.5884,-5.5927,-5.5931,-5.5956,-5.596,-5.5993,-5.596,-5.5984,-5.599,-5.5996,-5.6005,-5.5821,-5.5997,-5.5997,-5.5996,-5.5996,-5.5995,0,-5.5914,-5.5914,-5.5945,-5.5964,-5.5991,-5.595,-5.5963,-5.5987,-5.6026,-5.6034,-5.6058,-5.61,-5.6131,-5.6118,-5.6145,-5.6174,-5.6156,-5.6183,-5.6179,-5.6179,-5.6033,-5.6016,-5.6197,-5.6197,-5.6197,-5.6197,-5.6197,-5.6197,-5.601,-5.6074,-5.606,-5.6126,-5.6125,-5.6167,-5.6178,-5.619,-5.6196,-5.6245,-5.6271,-5.6263,-5.6263,-5.629,-5.6316,-5.6312,-5.6324,-5.6357,-5.6346,-5.6209,-5.6189,-5.617,-5.6153,-5.6361,-5.6361,-5.6488,-5.6489,-5.649]},{"header":{"parameterUnit":"m.s-1","parameterCategory":1,"la1":30.2991,"la2":30.254,"lo1":-89.0895,"lo2":-89.0444,"dy":0.0017,"dx":0.0017,"nx":28,"ny":28,"refTime":"2023-08-21T21:00:00:Z","depth":0,"parameterNumber":3,"parameterNumberName":"V-component_of_WINDS"},"data":[0,0,0,0,0,0,0,0,0,0,0,0,0,0,0,0,0,0,0,0,0,0,0,0,0,0,0,0,0,0,0,0,0,0,0,0,0,0,0,0,0,0,0,0,0,0,0,0,0,0,0,0,0,0,0,0,0,0,2.7493,2.7494,0,2.7569,2.757,2.7571,2.7639,2.764,2.764,2.7641,2.7714,2.7715,2.7716,0,0,0,0,0,0,0,0,0,0,0,0,0,2.7401,2.7402,2.7493,2.7494,2.7495,2.7569,2.757,2.7571,2.7639,2.764,2.7641,2.7641,2.7714,2.7715,2.7716,0,0,0,0,0,0,0,0,0,0,0,0,0,2.7455,2.7403,2.7493,2.7537,2.7542,2.7569,2.757,2.7572,2.7638,2.764,2.7641,2.7642,2.7713,2.7715,2.7717,2.7704,0,0,2.7722,2.7723,0,0,0,0,0,0,0,0,2.7452,2.7459,2.753,2.7534,2.754,2.7596,2.7565,2.7616,2.7638,2.7602,2.7641,2.7643,2.7673,2.7679,2.769,2.7707,2.771,2.7722,2.7723,2.7724,2.7725,0,0,0,0,0,0,0,2.7448,2.7456,2.7523,2.7531,2.7537,2.7552,2.7561,2.7575,2.763,2.7605,2.761,2.7619,2.7676,2.7688,2.7692,2.7711,2.7722,2.7724,2.7725,2.7726,2.7723,2.7721,0,0,0,0,0,0,2.7438,2.7452,2.752,2.7525,2.7498,2.7553,2.7563,2.7576,2.763,2.7639,2.7617,2.7621,2.7685,2.769,2.7695,2.7684,2.7724,2.7726,2.7727,2.7724,2.7722,2.7721,0,0,0,0,0,0,2.7436,2.7444,2.7517,2.749,2.7501,2.7553,2.7568,2.7577,2.7589,2.7639,2.7649,2.762,2.7686,2.7693,2.7702,2.7687,2.7727,2.7728,2.7725,2.7723,2.7722,2.7661,0,0,0,0,0,0,2.7433,2.7443,2.7439,2.749,2.7502,2.7523,2.7567,2.7578,2.7593,2.7599,2.7644,2.7652,2.7687,2.7699,2.7703,2.7691,2.773,2.7727,2.7724,2.7722,2.7664,2.7657,2.7651,0,0,0,0,0,2.743,2.7417,2.7438,2.7446,2.7499,2.7523,2.7529,2.7571,2.7592,2.7588,2.762,2.7651,2.7688,2.7699,2.7705,2.7692,2.7728,2.7725,2.7722,2.7667,2.7659,2.7651,0,0,0,0,0,0,2.7361,2.7425,2.7449,2.7453,2.7482,2.7534,2.753,2.756,2.7583,2.7587,2.7637,2.7646,2.765,2.7672,2.7683,2.7683,2.7712,2.7711,2.7668,2.7661,2.7654,2.7648,2.7731,0,0,0,0,0,2.7347,2.7362,2.7417,2.7415,2.7428,2.7477,2.7489,2.7519,2.755,2.7562,2.7595,2.7623,2.7642,2.7653,2.7672,2.7668,2.7679,2.7663,2.7656,2.7651,2.7648,2.7649,2.7642,2.7712,2.7713,2.7713,0,0,2.7316,2.7353,2.7359,2.7402,2.7428,2.7442,2.7487,2.7499,2.751,2.7564,2.7575,2.76,2.7635,2.7638,2.7641,2.7656,2.7632,2.7647,2.7642,2.7643,2.7645,2.7639,2.7633,2.7711,2.7711,2.7711,0,0,2.7268,2.7298,2.73,2.7326,2.7367,2.7399,2.74,2.7448,2.7468,2.748,2.7522,2.7534,2.7564,2.7588,2.7604,2.7567,2.7596,2.7572,2.7537,2.7537,2.7531,2.7527,2.7513,2.7508,2.757,2.757,2.7569,0,2.7225,2.7249,2.7297,2.7308,2.7325,2.7378,2.738,2.7402,2.7446,2.7456,2.7474,2.7514,2.7541,2.7551,2.7542,2.7553,2.7555,2.7566,2.7529,2.7524,2.7521,2.7508,2.7503,2.7566,2.7567,2.7567,2.7567,0,2.7194,2.721,2.7207,2.7251,2.7268,2.7274,2.7322,2.7333,2.7362,2.7393,2.7405,2.744,2.7468,2.7472,2.7499,2.7486,2.7495,2.752,2.755,2.751,2.7499,2.7495,2.7562,2.7563,2.7564,2.7565,0,0,2.7103,2.7175,2.7173,2.7194,2.7243,2.7256,2.7264,2.7294,2.7303,2.7332,2.734,2.7365,2.739,2.7408,2.7438,2.7438,2.7407,2.7464,2.7465,2.7451,2.7394,2.7374,2.7368,2.7428,2.7427,2.7426,2.7391,0,2.7063,2.7083,2.7128,2.7134,2.7149,2.72,2.7208,2.7238,2.7268,2.7284,2.7316,2.7333,2.7364,2.7375,2.7378,2.741,2.7396,2.7414,2.7434,2.7434,2.7423,2.7363,2.7342,2.7307,2.7387,2.7387,2.7386,0,2.7018,2.7046,2.7055,2.7105,2.7113,2.7119,2.7151,2.7166,2.7202,2.7223,2.7244,2.7279,2.729,2.7319,2.7335,2.7346,2.7357,2.7374,2.7374,2.7376,2.7407,2.7363,2.7297,2.7291,2.738,2.7381,2.7381,0,2.6951,2.6991,2.7001,2.7017,2.7076,2.7079,2.7103,2.7141,2.7156,2.7183,2.7193,2.722,2.7235,2.7255,2.7295,2.7313,2.7307,2.7339,2.7324,2.7322,2.7319,2.7318,2.7252,2.7327,2.7327,2.7327,2.7328,0,2.6901,2.6903,2.6972,2.6978,2.6983,2.7034,2.7037,2.7066,2.7099,2.7111,2.7156,2.7166,2.722,2.7236,2.7268,2.7276,2.7282,2.7299,2.7307,2.7294,2.7292,2.7301,2.7304,2.7326,2.7326,2.7327,2.7327,0,2.6825,2.6871,2.6886,2.6942,2.6956,2.6957,2.7003,2.7011,2.7044,2.7059,2.7065,2.7116,2.7137,2.7181,2.7213,2.7235,2.7235,2.725,2.7223,2.7228,2.7211,2.7212,2.7148,2.7142,2.7221,2.722,2.7219,0,2.679,2.6794,2.6851,2.6863,2.6886,2.6905,2.6922,2.6972,2.6988,2.703,2.7032,2.7058,2.7081,2.7112,2.7151,2.7176,2.7192,2.7168,2.7196,2.7183,2.7191,2.719,2.719,2.7161,2.716,2.7159,2.7158,0,2.6722,2.6746,2.6769,2.6801,2.682,2.6847,2.6876,2.6883,2.694,2.6955,2.6979,2.6997,2.7032,2.7056,2.7087,2.7111,2.7143,2.715,2.7148,2.7134,2.7118,2.7126,2.7206,2.715,2.7151,2.7152,2.7152,2.7153,2.6666,2.6672,2.6714,2.6739,2.6766,2.6793,2.6803,2.6839,2.686,2.6894,2.6922,2.6943,2.6979,2.7025,2.7047,2.7064,2.7079,2.7076,2.7075,2.7073,2.7068,2.7117,2.707,2.707,2.707,2.707,2.7071,0,2.6601,2.663,2.6653,2.6694,2.6713,2.6745,2.6779,2.6793,2.6812,2.6844,2.6867,2.6894,2.6918,2.696,2.6988,2.6993,2.7008,2.6998,2.6998,2.7003,2.7052,2.7051,2.6985,2.6985,2.6985,2.6985,2.6985,2.6985,2.6569,2.6581,2.661,2.6636,2.6666,2.6689,2.6706,2.673,2.6756,2.6786,2.6807,2.6835,2.6871,2.6902,2.6926,2.6937,2.6945,2.693,2.6946,2.6991,2.6999,2.7007,2.7006,2.6931,2.6931,2.6895,2.6894,2.6894]}]]